FENGYUN 1C DEB, 35105

Orbit data source: Space-Track

FENGYUN 1C DEB, 35105 is space debris in SSO originally from a launch on Mon, 10 May 1999 UTC launched from the Taiyaun Space Center, China (TSC). Fengyun 1C debris stems from the Chinese weather satellite Fengyun-1C, which was intentionally destroyed by a Chinese anti-satellite missile in 2007. This event dramatically increased the amount of space debris, with thousands of trackable fragments posing hazards to satellites and human spaceflight. The Fengyun 1C debris cloud has become a focal point in discussions about space sustainability and the need for international regulations to prevent the creation of new debris.

Loading next visibility...
Identifier
35105, 1999-025DKH
Orbit
SSO
Country
Flag of CNCN / PRC
Related business
Manufacturer
Unknown
Mission
Spacecraft
Bus & Motor
Unknown
Mass
Unknown
Launch date (UTC)
1999-05-10 (27 years ago)
Launch vehicle
Unknown
Launch site
Taiyaun Space Center, China (TSC)
Object type
Payload
Rocket body
Debris
Shape & HBR
Unknown shape, 0.1 m
Radar Cross Section
Small (<0.1 m²)

Expand to show TLE details & history
Last TLE update: 11 hours ago

TLE from 11 hours ago
0 FENGYUN 1C DEB
1 35105U 99025DKH 26177.80987568  .00000668  00000-0  18835-3 0  9991
2 35105  98.9577 174.6443 0110692 188.6913 171.2362 14.45877587973260
Epoch: 2026-06-26T19:26Z
TLE epoch observation values (Epoch: 2026-06-26T19:26:13.258Z)
Latitude
-0.00013°
Longitude
-31.84397°
Altitude
819.985 km
Speed
7.402 km/s
True Right ascension
11h 38m 34s
True Declination
0° 00' 00"
Sunlit
Object was in daylight at epoch
Visualization orbit readout
Latitude
Unknown
Longitude
Unknown
Altitude
Unknown
Speed
Unknown
Apparent Right ascension
Unknown
Apparent Declination
Unknown
Sunlit
N/A
Visualization observer readout
Local Sidereal Time
17:36:34
Azimuth
Unknown
Elevation
Unknown
Doppler factor
Unknown
Orbital elements
Apogee altitude
815.031 km
Perigee altitude
657.53 km
Semi-major axis
7,114.417 km
Eccentricity
0.01107
Inclination
98.9577°
RAAN
174.6443°
Arg. of periapsis
188.6913°
True anomaly
171.42685°
Mean anomaly
171.2362°
Eccentric anomaly
171.33178°
Mean motion
3.61688 °/min
Orbital period
99.53 mins
BSTAR
0.00018835
Loading maneuver chart data...
Computing Atmospheric mass density...

Documentation

Showing up to 5 results
|